[[{"header":{"parameterUnit":"m.s-1","parameterCategory":1,"la1":30.2991,"la2":30.254,"lo1":-89.0895,"lo2":-89.0444,"dy":0.0017,"dx":0.0017,"nx":28,"ny":28,"refTime":"2023-11-03T03:00:00:Z","depth":0,"parameterNumber":2,"parameterNumberName":"U-component_of_WINDS"},"data":[0,0,0,0,0,0,0,0,0,0,0,0,0,0,0,0,0,0,0,0,0,0,0,0,0,0,0,0,0,0,0,0,0,0,0,0,0,0,0,0,0,0,0,0,0,0,0,0,0,0,0,0,0,0,0,0,0,0,-3.1759,-3.176,0,-3.1887,-3.1888,-3.189,-3.1803,-3.1799,-3.1795,-3.1791,-3.1925,-3.1932,-3.1939,0,0,0,0,0,0,0,0,0,0,0,0,0,-3.144,-3.1447,-3.1758,-3.176,-3.1762,-3.1887,-3.1888,-3.189,-3.1803,-3.1799,-3.1794,-3.1789,-3.1922,-3.1931,-3.1939,0,0,0,0,0,0,0,0,0,0,0,0,0,-3.1575,-3.1449,-3.1758,-3.1733,-3.1733,-3.1886,-3.1888,-3.1891,-3.1804,-3.1798,-3.1793,-3.1787,-3.1919,-3.193,-3.1941,-3.2126,0,0,-3.1974,-3.1979,0,0,0,0,0,0,0,0,-3.1567,-3.1586,-3.1736,-3.1735,-3.1735,-3.1823,-3.1825,-3.197,-3.1806,-3.1777,-3.1791,-3.1784,-3.1896,-3.1908,-3.1945,-3.2133,-3.2138,-3.1975,-3.1981,-3.1986,-3.1989,0,0,0,0,0,0,0,-3.1558,-3.158,-3.1809,-3.1738,-3.1737,-3.1717,-3.1729,-3.1852,-3.1868,-3.1779,-3.1773,-3.1789,-3.1894,-3.1935,-3.1948,-3.214,-3.1974,-3.1984,-3.1991,-3.1995,-3.2487,-3.2493,0,0,0,0,0,0,-3.1551,-3.1573,-3.1805,-3.1813,-3.1635,-3.1727,-3.1741,-3.18,-3.1867,-3.1871,-3.1794,-3.1785,-3.1919,-3.1935,-3.1952,-3.2174,-3.1986,-3.1996,-3.2002,-3.2481,-3.2489,-3.2496,0,0,0,0,0,0,-3.1544,-3.1572,-3.18,-3.1692,-3.1719,-3.1739,-3.1806,-3.1806,-3.1847,-3.1878,-3.1881,-3.1833,-3.1915,-3.1937,-3.2084,-3.2178,-3.2001,-3.2011,-3.2473,-3.2483,-3.2492,-3.262,0,0,0,0,0,0,-3.1535,-3.157,-3.1641,-3.1694,-3.1725,-3.1929,-3.1812,-3.1813,-3.1865,-3.1854,-3.1915,-3.1919,-3.1912,-3.2068,-3.2094,-3.2189,-3.2019,-3.2465,-3.2477,-3.2489,-3.2608,-3.2633,-3.2655,0,0,0,0,0,-3.1524,-3.1672,-3.1645,-3.1673,-3.1814,-3.1935,-3.1953,-3.1941,-3.1873,-3.1945,-3.1965,-3.1917,-3.2163,-3.2084,-3.2113,-3.2213,-3.2459,-3.2474,-3.2488,-3.2597,-3.2628,-3.2654,0,0,0,0,0,0,-3.163,-3.1679,-3.1649,-3.1818,-3.1873,-3.192,-3.2009,-3.1974,-3.205,-3.2037,-3.202,-3.2034,-3.2188,-3.2215,-3.2126,-3.2396,-3.23,-3.2321,-3.2373,-3.2403,-3.2426,-3.2417,-3.2028,0,0,0,0,0,-3.1673,-3.1767,-3.1804,-3.195,-3.1979,-3.199,-3.2042,-3.2028,-3.2085,-3.2108,-3.2139,-3.2196,-3.2286,-3.2346,-3.243,-3.2611,-3.2623,-3.2694,-3.2717,-3.2737,-3.2755,-3.2853,-3.2885,-3.2544,-3.2544,-3.2544,0,0,-3.1763,-3.1801,-3.1862,-3.1972,-3.2013,-3.2112,-3.201,-3.2118,-3.2191,-3.2124,-3.2265,-3.229,-3.2353,-3.2517,-3.2591,-3.2544,-3.2852,-3.2755,-3.2771,-3.2779,-3.2872,-3.2904,-3.2933,-3.2554,-3.2552,-3.2551,0,0,-3.1977,-3.2015,-3.2141,-3.2184,-3.2247,-3.2253,-3.2283,-3.2336,-3.2349,-3.249,-3.2442,-3.2529,-3.2684,-3.2731,-3.2775,-3.3007,-3.2966,-3.3035,-3.3159,-3.3255,-3.3281,-3.3305,-3.3389,-3.3419,-3.3053,-3.3054,-3.3054,0,-3.2081,-3.2227,-3.221,-3.2322,-3.2372,-3.2316,-3.2443,-3.2486,-3.2574,-3.261,-3.2556,-3.275,-3.2788,-3.2963,-3.302,-3.3057,-3.3092,-3.3028,-3.3279,-3.3302,-3.3324,-3.3404,-3.3435,-3.3062,-3.3061,-3.306,-3.3059,0,-3.2352,-3.2453,-3.2547,-3.2633,-3.2694,-3.2813,-3.2815,-3.2879,-3.286,-3.2872,-3.3016,-3.306,-3.3153,-3.3193,-3.3176,-3.3366,-3.3335,-3.328,-3.3184,-3.3365,-3.3439,-3.347,-3.3073,-3.307,-3.3068,-3.3066,0,0,-3.2637,-3.2711,-3.2746,-3.2784,-3.2849,-3.2928,-3.3045,-3.3135,-3.319,-3.3253,-3.3351,-3.3483,-3.3433,-3.3483,-3.3471,-3.3555,-3.3736,-3.349,-3.3491,-3.3534,-3.395,-3.3991,-3.4026,-3.371,-3.3715,-3.372,-3.3944,0,-3.2855,-3.3058,-3.3046,-3.3237,-3.3331,-3.3279,-3.3381,-3.3432,-3.3447,-3.3529,-3.3545,-3.364,-3.3566,-3.3596,-3.3676,-3.3697,-3.382,-3.3681,-3.3802,-3.3806,-3.3788,-3.4065,-3.4109,-3.4318,-3.3973,-3.3978,-3.3982,0,-3.3136,-3.3208,-3.3408,-3.3459,-3.3498,-3.359,-3.3671,-3.3751,-3.3808,-3.3813,-3.3869,-3.3843,-3.3961,-3.3862,-3.4026,-3.3932,-3.398,-3.3998,-3.4006,-3.4017,-3.3905,-3.4084,-3.4385,-3.4417,-3.4027,-3.4024,-3.402,0,-3.3325,-3.3471,-3.361,-3.3644,-3.3707,-3.3773,-3.3802,-3.3854,-3.3909,-3.398,-3.4015,-3.41,-3.4147,-3.4214,-3.4211,-3.4138,-3.4378,-3.4278,-3.4386,-3.4386,-3.4439,-3.4436,-3.4753,-3.447,-3.4469,-3.4469,-3.4468,0,-3.357,-3.3695,-3.3695,-3.3781,-3.3919,-3.3905,-3.4042,-3.4065,-3.4111,-3.4201,-3.416,-3.4245,-3.4237,-3.4323,-3.4322,-3.4458,-3.4479,-3.4487,-3.4485,-3.4491,-3.449,-3.4523,-3.4509,-3.4477,-3.4475,-3.4474,-3.4472,0,-3.3804,-3.3809,-3.3957,-3.4005,-3.4019,-3.4119,-3.416,-3.4242,-3.4252,-3.4366,-3.4392,-3.4409,-3.4508,-3.4512,-3.4626,-3.4626,-3.4792,-3.4774,-3.4773,-3.4769,-3.4877,-3.4867,-3.5227,-3.5274,-3.496,-3.4963,-3.4966,0,-3.396,-3.4055,-3.4112,-3.4169,-3.4202,-3.4294,-3.4349,-3.4339,-3.4399,-3.4471,-3.4544,-3.4639,-3.4715,-3.4876,-3.4899,-3.4986,-3.497,-3.509,-3.4983,-3.4986,-3.4973,-3.4967,-3.4977,-3.5111,-3.5115,-3.5118,-3.512,0,-3.4238,-3.4235,-3.4316,-3.4399,-3.4466,-3.4531,-3.4591,-3.464,-3.4636,-3.4705,-3.4806,-3.4864,-3.498,-3.5076,-3.516,-3.5191,-3.5156,-3.5153,-3.5183,-3.519,-3.5186,-3.519,-3.483,-3.5145,-3.5143,-3.5141,-3.514,-3.5139,-3.4438,-3.452,-3.4573,-3.4664,-3.4708,-3.4765,-3.4844,-3.4864,-3.4947,-3.504,-3.5029,-3.5141,-3.5197,-3.5307,-3.5345,-3.5433,-3.5391,-3.5434,-3.5445,-3.5456,-3.5468,-3.5171,-3.5448,-3.5447,-3.5447,-3.5446,-3.5445,0,-3.4713,-3.4744,-3.4829,-3.4914,-3.4986,-3.4945,-3.5009,-3.5073,-3.5172,-3.5226,-3.5301,-3.5416,-3.5508,-3.5539,-3.5629,-3.5693,-3.5679,-3.5717,-3.5712,-3.572,-3.55,-3.5465,-3.5727,-3.5727,-3.5727,-3.5727,-3.5727,-3.5727,-3.4865,-3.5001,-3.5005,-3.5163,-3.5193,-3.5302,-3.5342,-3.5395,-3.5438,-3.5568,-3.5644,-3.5663,-3.5708,-3.5801,-3.5884,-3.589,-3.5926,-3.5971,-3.5971,-3.5764,-3.5736,-3.5709,-3.5676,-3.5978,-3.5979,-3.6184,-3.6186,-3.6187]},{"header":{"parameterUnit":"m.s-1","parameterCategory":1,"la1":30.2991,"la2":30.254,"lo1":-89.0895,"lo2":-89.0444,"dy":0.0017,"dx":0.0017,"nx":28,"ny":28,"refTime":"2023-11-03T03:00:00:Z","depth":0,"parameterNumber":3,"parameterNumberName":"V-component_of_WINDS"},"data":[0,0,0,0,0,0,0,0,0,0,0,0,0,0,0,0,0,0,0,0,0,0,0,0,0,0,0,0,0,0,0,0,0,0,0,0,0,0,0,0,0,0,0,0,0,0,0,0,0,0,0,0,0,0,0,0,0,0,-2.0697,-2.0696,0,-2.0676,-2.0675,-2.0675,-2.0671,-2.0672,-2.0672,-2.0672,-2.0649,-2.0648,-2.0648,0,0,0,0,0,0,0,0,0,0,0,0,0,-2.0731,-2.073,-2.0697,-2.0696,-2.0696,-2.0676,-2.0675,-2.0675,-2.0671,-2.0672,-2.0672,-2.0672,-2.0649,-2.0648,-2.0648,0,0,0,0,0,0,0,0,0,0,0,0,0,-2.0713,-2.073,-2.0697,-2.0692,-2.0691,-2.0676,-2.0675,-2.0675,-2.0671,-2.0672,-2.0672,-2.0672,-2.065,-2.0649,-2.0647,-2.0635,0,0,-2.0644,-2.0643,0,0,0,0,0,0,0,0,-2.0714,-2.0712,-2.0693,-2.0692,-2.0691,-2.0676,-2.0679,-2.0661,-2.0671,-2.0679,-2.0672,-2.0672,-2.0658,-2.0656,-2.0652,-2.0634,-2.0633,-2.0644,-2.0643,-2.0643,-2.0642,0,0,0,0,0,0,0,-2.0715,-2.0713,-2.0688,-2.0692,-2.0692,-2.069,-2.0688,-2.0676,-2.0667,-2.0678,-2.0678,-2.0675,-2.0658,-2.0653,-2.0651,-2.0633,-2.0644,-2.0643,-2.0642,-2.0642,-2.06,-2.06,0,0,0,0,0,0,-2.0718,-2.0714,-2.0689,-2.0688,-2.0704,-2.0689,-2.0686,-2.0681,-2.0667,-2.0665,-2.0675,-2.0675,-2.0654,-2.0652,-2.065,-2.0633,-2.0643,-2.0642,-2.0641,-2.0601,-2.06,-2.06,0,0,0,0,0,0,-2.0719,-2.0716,-2.069,-2.0701,-2.0697,-2.0688,-2.0682,-2.068,-2.0675,-2.0665,-2.0663,-2.0672,-2.0655,-2.0652,-2.0638,-2.0632,-2.0641,-2.064,-2.0601,-2.0601,-2.06,-2.0599,0,0,0,0,0,0,-2.072,-2.0716,-2.0712,-2.0701,-2.0697,-2.0679,-2.0681,-2.068,-2.0674,-2.0674,-2.0661,-2.066,-2.0655,-2.064,-2.0637,-2.063,-2.0639,-2.0602,-2.0601,-2.06,-2.0599,-2.0598,-2.0597,0,0,0,0,0,-2.0721,-2.0713,-2.0712,-2.0709,-2.0692,-2.0679,-2.0676,-2.0671,-2.0673,-2.0668,-2.0661,-2.066,-2.0633,-2.0639,-2.0635,-2.0628,-2.0602,-2.0601,-2.06,-2.06,-2.0598,-2.0597,0,0,0,0,0,0,-2.0724,-2.0711,-2.071,-2.0698,-2.069,-2.0678,-2.0672,-2.067,-2.066,-2.0661,-2.0654,-2.0651,-2.0637,-2.0632,-2.0638,-2.0614,-2.0618,-2.0616,-2.0618,-2.0617,-2.0616,-2.0617,-2.0638,0,0,0,0,0,-2.0723,-2.0715,-2.0704,-2.0694,-2.069,-2.0682,-2.0676,-2.0672,-2.0663,-2.0659,-2.0651,-2.0641,-2.063,-2.0623,-2.0613,-2.0598,-2.0594,-2.0592,-2.0591,-2.059,-2.0588,-2.0578,-2.0576,-2.0597,-2.0597,-2.0597,0,0,-2.0722,-2.0714,-2.0709,-2.0695,-2.0688,-2.0677,-2.0679,-2.0669,-2.0661,-2.0658,-2.0644,-2.0637,-2.0626,-2.0611,-2.0604,-2.0606,-2.0581,-2.0589,-2.0588,-2.0587,-2.0576,-2.0574,-2.0573,-2.0596,-2.0596,-2.0596,0,0,-2.0714,-2.0708,-2.0698,-2.069,-2.0679,-2.0673,-2.0671,-2.0659,-2.0655,-2.0641,-2.0638,-2.0627,-2.0609,-2.0601,-2.0594,-2.0579,-2.0577,-2.0576,-2.0571,-2.056,-2.0558,-2.0557,-2.055,-2.0548,-2.0575,-2.0575,-2.0575,0,-2.0713,-2.0699,-2.0693,-2.0683,-2.0676,-2.0672,-2.0661,-2.0654,-2.064,-2.0634,-2.0636,-2.0612,-2.0604,-2.0586,-2.0582,-2.0577,-2.0573,-2.0578,-2.0559,-2.0558,-2.0556,-2.0549,-2.0547,-2.0575,-2.0575,-2.0575,-2.0575,0,-2.0698,-2.0688,-2.0681,-2.0667,-2.0659,-2.0649,-2.064,-2.0633,-2.0629,-2.0622,-2.0607,-2.0597,-2.0583,-2.0579,-2.0576,-2.0559,-2.056,-2.0561,-2.0564,-2.0554,-2.0547,-2.0545,-2.0574,-2.0575,-2.0575,-2.0575,0,0,-2.0693,-2.0674,-2.0672,-2.0664,-2.0651,-2.0642,-2.063,-2.0617,-2.0609,-2.0599,-2.0588,-2.0571,-2.0571,-2.0563,-2.0558,-2.0549,-2.0536,-2.0551,-2.055,-2.0547,-2.0515,-2.0513,-2.0511,-2.0534,-2.0534,-2.0534,-2.0515,0,-2.0682,-2.0662,-2.0655,-2.0638,-2.0627,-2.0622,-2.0611,-2.06,-2.0593,-2.0582,-2.0574,-2.0562,-2.0563,-2.0558,-2.0549,-2.054,-2.0529,-2.0541,-2.0522,-2.0522,-2.0524,-2.0508,-2.0507,-2.049,-2.0512,-2.0512,-2.0512,0,-2.0668,-2.0657,-2.0638,-2.0623,-2.0618,-2.0609,-2.0594,-2.0584,-2.0571,-2.0567,-2.0556,-2.0552,-2.0537,-2.0542,-2.052,-2.0528,-2.052,-2.0514,-2.0513,-2.051,-2.0516,-2.0503,-2.0485,-2.0482,-2.0508,-2.0508,-2.0509,0,-2.0664,-2.0644,-2.063,-2.0624,-2.0607,-2.06,-2.0592,-2.0579,-2.0571,-2.0558,-2.0552,-2.0537,-2.0529,-2.0517,-2.0508,-2.0512,-2.0486,-2.0491,-2.048,-2.0481,-2.0475,-2.0475,-2.0454,-2.0472,-2.0472,-2.0472,-2.0472,0,-2.0653,-2.0641,-2.0628,-2.0619,-2.0605,-2.0596,-2.0582,-2.0574,-2.0562,-2.055,-2.0545,-2.0533,-2.0522,-2.0509,-2.0502,-2.0483,-2.048,-2.0475,-2.0473,-2.0475,-2.0475,-2.0469,-2.0469,-2.0471,-2.0471,-2.0471,-2.0471,0,-2.0647,-2.0637,-2.0621,-2.0605,-2.0601,-2.0591,-2.0577,-2.0567,-2.0559,-2.0544,-2.0539,-2.0526,-2.051,-2.0499,-2.0479,-2.0474,-2.0453,-2.0452,-2.0458,-2.0457,-2.0446,-2.0447,-2.0419,-2.0414,-2.0436,-2.0436,-2.0436,0,-2.064,-2.0631,-2.0613,-2.0605,-2.0597,-2.0584,-2.0575,-2.0565,-2.0555,-2.0538,-2.053,-2.0513,-2.0499,-2.0473,-2.046,-2.0444,-2.0441,-2.0433,-2.0439,-2.044,-2.0439,-2.0439,-2.0437,-2.0432,-2.0431,-2.0431,-2.0431,0,-2.0628,-2.0623,-2.0611,-2.0595,-2.0584,-2.0572,-2.0559,-2.0552,-2.054,-2.0529,-2.0512,-2.0501,-2.0479,-2.0462,-2.0443,-2.0434,-2.0429,-2.0429,-2.0425,-2.0427,-2.043,-2.0426,-2.0453,-2.043,-2.043,-2.043,-2.043,-2.043,-2.0621,-2.0611,-2.0597,-2.0582,-2.0571,-2.0559,-2.0548,-2.0538,-2.0523,-2.0505,-2.05,-2.0481,-2.0465,-2.044,-2.043,-2.0414,-2.0415,-2.0411,-2.0409,-2.0408,-2.0407,-2.0433,-2.0411,-2.0411,-2.0411,-2.0411,-2.0411,0,-2.0607,-2.0597,-2.0584,-2.0566,-2.0553,-2.055,-2.0535,-2.0525,-2.0509,-2.0494,-2.048,-2.0459,-2.0441,-2.0427,-2.0408,-2.0398,-2.0395,-2.0393,-2.0393,-2.039,-2.0408,-2.0412,-2.0395,-2.0395,-2.0395,-2.0395,-2.0395,-2.0395,-2.0599,-2.0582,-2.0575,-2.0551,-2.0541,-2.0523,-2.0515,-2.0502,-2.049,-2.0467,-2.0452,-2.0443,-2.0427,-2.0407,-2.0389,-2.0385,-2.0378,-2.0376,-2.0371,-2.0388,-2.0389,-2.0391,-2.0395,-2.0375,-2.0375,-2.0354,-2.0354,-2.0354]}]]